Total_Precipitation_Accumulation
0.01 0.02 0.03 0.06 0.21 0.45 0.72 0.64 0.69 0.69 0.70 0.62 0.63 0.72 0.81 0.92 1.18 2.02 1.35 0.69 0.48 0.52 0.48 0.55 0.57 0.58 0.64 0.68 0.76 0.90 0.96 0.93 1.01 1.14 1.38 1.42 1.52 1.72 1.79 1.81 1.94 1.99 1.93 1.76 1.64 1.70 1.82 1.97 1.90
0.02 0.03 0.05 0.10 0.34 0.70 0.73 0.64 0.69 0.69 0.59 0.50 0.57 0.70 0.68 0.67 0.62 0.66 0.79 0.63 0.48 0.44 0.50 0.49 0.53 0.60 0.61 0.65 0.70 0.86 0.94 0.93 0.95 1.06 1.30 1.46 1.56 1.68 1.75 1.85 1.98 2.18 2.18 2.12 1.87 1.80 1.91 1.95 1.82
0.02 0.04 0.08 0.14 0.38 0.63 0.72 0.60 0.62 0.59 0.51 0.53 0.59 0.68 0.76 0.81 0.73 0.66 0.64 0.45 0.51 0.45 0.53 0.61 0.60 0.65 0.61 0.64 0.72 0.86 1.01 1.06 1.05 1.12 1.26 1.55 1.66 1.71 1.85 2.00 1.93 2.07 2.18 2.26 2.14 2.09 2.04 1.94 1.77
0.03 0.06 0.10 0.18 0.33 0.44 0.54 0.53 0.64 0.72 0.62 0.59 0.59 0.76 0.87 0.77 0.74 0.69 0.62 0.53 0.49 0.51 0.58 0.58 0.61 0.65 0.65 0.70 0.79 0.91 1.15 1.19 1.17 1.21 1.34 1.55 1.67 1.73 1.95 2.21 2.02 1.92 1.95 2.09 2.19 2.19 2.13 2.00 1.71
0.05 0.08 0.14 0.25 0.33 0.35 0.48 0.56 0.73 0.83 0.68 0.64 0.69 0.94 1.08 0.98 0.89 0.85 0.76 0.69 0.57 0.56 0.65 0.62 0.68 0.72 0.75 0.78 0.84 1.01 1.16 1.22 1.24 1.32 1.44 1.61 1.64 1.67 1.90 2.23 2.27 2.17 2.12 2.15 2.14 2.11 2.03 2.04 1.89
0.06 0.10 0.22 0.34 0.36 0.36 0.44 0.56 0.61 0.71 0.68 0.66 0.76 1.17 1.57 1.56 1.44 1.32 1.17 0.89 0.72 0.65 0.75 0.79 0.83 0.85 0.90 0.91 0.88 1.01 1.14 1.18 1.32 1.48 1.54 1.65 1.75 1.77 1.93 2.22 2.43 2.37 2.31 2.22 2.11 1.93 1.77 1.94 1.95
0.10 0.17 0.26 0.33 0.40 0.44 0.44 0.58 0.67 0.73 0.74 0.79 0.95 1.23 1.60 1.75 1.82 1.69 1.52 1.22 1.17 1.09 1.14 1.13 1.03 0.97 1.01 1.02 0.99 1.03 1.10 1.12 1.25 1.45 1.49 1.54 1.75 1.92 1.96 2.11 2.29 2.30 2.19 2.14 2.05 1.92 1.67 1.79 1.95
0.08 0.12 0.20 0.27 0.40 0.52 0.51 0.67 0.68 0.68 0.80 0.90 1.10 1.39 1.83 1.74 1.57 1.73 1.78 1.71 1.66 1.74 1.74 1.37 1.19 1.14 1.15 1.15 1.14 1.19 1.18 1.16 1.23 1.36 1.51 1.63 1.79 1.97 2.18 2.20 2.27 2.25 2.11 2.07 2.04 2.02 1.86 1.89 2.05
0.09 0.12 0.18 0.30 0.40 0.47 0.44 0.62 0.61 0.53 0.62 0.80 1.07 1.22 1.42 1.38 1.39 1.73 1.95 2.25 2.37 2.19 2.03 1.75 1.48 1.44 1.37 1.23 1.13 1.30 1.31 1.28 1.33 1.42 1.52 1.67 1.92 2.24 2.40 2.24 2.31 2.21 2.14 2.19 2.24 2.16 2.09 2.19 2.23
0.06 0.10 0.17 0.23 0.25 0.35 0.44 0.60 0.55 0.61 0.68 0.84 0.97 1.21 1.40 1.39 1.68 1.88 2.07 2.57 2.50 2.39 2.18 2.09 1.96 1.76 1.71 1.39 1.52 1.76 1.60 1.58 1.51 1.68 1.72 1.95 2.35 2.58 2.44 2.69 2.74 2.66 2.59 2.61 2.62 2.53 2.37 2.26 2.10
0.06 0.08 0.14 0.21 0.20 0.28 0.44 0.55 0.54 0.68 0.92 1.21 1.29 1.29 1.35 1.45 1.77 2.04 2.24 2.61 2.74 2.53 2.21 2.24 2.23 2.23 2.25 2.21 2.01 2.05 2.06 2.12 2.04 2.20 2.17 2.41 2.63 2.66 2.82 3.10 3.09 3.01 2.89 2.76 2.84 2.69 2.26 2.19 2.31
0.10 0.12 0.16 0.18 0.21 0.33 0.49 0.60 0.81 0.91 1.08 1.33 1.41 1.39 1.57 1.69 1.85 2.00 2.25 2.63 2.90 2.82 2.64 2.77 2.60 2.56 2.67 2.84 2.73 2.32 2.24 2.27 2.21 2.47 2.48 2.70 2.96 3.10 3.32 3.47 3.27 3.28 3.26 3.28 3.25 3.14 2.75 2.61 2.51
0.12 0.15 0.18 0.17 0.25 0.38 0.54 0.62 0.77 0.83 0.74 1.02 1.28 1.49 1.73 1.73 1.91 2.07 2.42 3.00 3.29 3.24 3.10 3.25 3.22 3.19 3.21 3.43 3.41 2.78 2.67 2.83 3.10 3.18 3.00 3.03 3.13 3.31 3.65 3.68 3.61 3.53 3.63 3.60 3.47 3.25 3.23 3.19 2.99
0.12 0.15 0.17 0.19 0.23 0.32 0.47 0.51 0.65 0.90 0.85 1.00 1.22 1.57 1.81 1.98 2.26 2.63 2.96 3.39 3.69 3.72 3.55 3.51 3.51 3.66 3.57 3.58 3.59 3.53 3.27 3.35 3.54 3.60 3.57 3.54 3.61 3.78 4.05 4.10 4.06 3.86 3.90 3.87 3.77 3.57 3.60 3.58 3.52
0.14 0.15 0.20 0.26 0.30 0.32 0.38 0.61 0.80 0.97 1.08 1.24 1.41 1.59 1.92 2.16 2.42 2.77 3.29 3.62 3.65 3.61 3.53 3.61 3.60 3.84 3.98 3.99 3.81 3.85 3.87 3.96 4.10 4.12 3.96 3.85 3.96 4.35 4.47 4.54 4.32 4.16 4.19 4.41 4.42 4.30 4.22 3.88 3.74
0.16 0.22 0.27 0.31 0.33 0.38 0.40 0.77 0.97 0.84 0.97 1.35 1.58 1.62 1.83 2.03 2.36 2.72 3.18 3.56 3.69 3.95 3.97 3.95 3.95 4.08 4.36 4.41 4.29 4.25 4.20 4.51 4.59 4.55 4.45 4.19 4.16 4.40 4.61 4.61 4.47 4.40 4.43 4.75 4.93 4.90 4.82 4.56 4.39
0.24 0.31 0.34 0.37 0.34 0.41 0.48 0.79 0.99 0.97 0.99 1.26 1.70 1.92 1.91 2.14 2.51 2.88 3.23 3.59 3.84 3.98 4.17 4.17 4.31 4.51 4.54 4.65 4.60 4.71 4.85 4.80 4.71 4.64 4.67 4.58 4.56 4.77 4.90 4.76 4.78 4.85 4.96 4.98 4.74 4.95 4.80 4.79 4.69
0.28 0.32 0.37 0.41 0.40 0.41 0.53 0.76 0.98 1.10 1.27 1.39 1.67 1.98 2.14 2.18 2.44 2.76 3.17 3.63 3.90 4.04 4.07 4.22 4.29 4.48 4.65 4.87 4.92 4.98 5.11 5.19 5.34 5.43 5.42 5.16 5.17 5.19 5.49 5.42 5.32 5.33 5.33 5.18 5.09 5.16 4.86 4.73 4.70
0.26 0.35 0.41 0.44 0.41 0.50 0.60 0.72 0.97 1.17 1.42 1.49 1.57 1.85 2.11 2.34 2.48 2.82 3.21 3.51 4.04 4.19 4.14 4.23 4.38 4.59 4.74 5.05 5.16 5.46 5.80 6.02 6.16 6.07 5.85 5.90 5.92 6.00 6.08 5.87 5.73 5.57 5.56 5.51 5.49 5.38 5.15 4.86 4.87
0.27 0.43 0.47 0.44 0.42 0.52 0.71 0.87 1.08 1.30 1.45 1.43 1.58 1.76 2.00 2.42 2.74 2.95 3.15 3.56 4.09 4.35 4.42 4.49 4.71 5.04 5.24 5.52 5.99 6.31 6.63 6.83 7.00 7.02 6.59 6.31 6.19 6.08 5.99 6.12 6.07 5.93 5.85 5.71 5.53 5.44 5.26 4.89 4.84
0.21 0.31 0.40 0.46 0.50 0.59 0.82 1.21 1.42 1.58 1.66 1.79 2.01 2.19 2.30 2.54 2.91 3.01 3.06 3.49 3.85 4.11 4.28 4.51 4.78 5.27 5.82 6.21 6.64 7.00 7.22 7.23 7.03 6.72 6.66 6.45 6.27 6.16 5.98 5.87 5.72 5.67 5.56 5.54 5.42 5.22 5.06 4.86 4.75
0.20 0.23 0.34 0.41 0.58 0.74 0.87 1.59 1.98 1.99 1.99 2.21 2.41 2.44 2.52 2.62 2.82 2.97 3.11 3.42 3.73 4.03 4.22 4.60 5.15 5.91 6.47 6.88 7.42 7.96 8.11 7.81 7.41 6.95 6.49 6.21 5.97 5.68 5.46 5.37 5.32 5.25 4.93 4.81 4.68 4.66 4.52 4.40 4.23
0.19 0.21 0.29 0.36 0.47 0.70 0.93 1.47 2.38 2.44 2.41 2.57 2.72 2.51 2.51 2.42 2.50 2.77 2.94 3.17 3.66 3.96 4.21 4.57 5.20 5.99 6.72 7.52 8.15 8.59 8.47 8.06 7.58 6.88 6.28 5.83 5.44 5.09 4.81 4.72 4.64 4.42 4.05 3.77 3.73 3.92 3.96 3.93 3.85
0.16 0.21 0.30 0.37 0.51 0.84 0.92 1.32 2.17 2.52 2.68 2.79 2.69 2.43 2.35 2.25 2.27 2.39 2.58 2.96 3.50 3.78 3.97 4.32 4.97 5.78 6.46 7.06 7.56 7.80 7.69 7.48 6.92 6.23 5.59 5.20 4.90 4.55 4.17 3.82 3.64 3.40 3.24 3.09 3.12 3.25 3.33 3.56 3.67
0.20 0.29 0.64 0.88 1.02 1.06 0.84 1.18 1.96 2.25 2.39 2.33 2.34 2.37 2.20 2.25 2.18 2.18 2.34 2.64 3.05 3.20 3.54 3.94 4.41 5.10 5.56 5.89 6.24 6.44 6.57 6.38 6.01 5.50 5.02 4.60 4.15 3.79 3.45 3.13 3.06 2.95 2.87 2.81 2.86 2.94 2.92 3.04 3.23
0.23 0.28 0.73 1.10 1.16 1.18 1.15 1.62 2.21 2.19 2.09 2.03 1.98 2.01 2.06 2.21 2.21 2.19 2.35 2.57 2.83 3.01 3.15 3.31 3.60 4.01 4.20 4.25 4.47 4.77 4.84 4.79 4.64 4.36 3.96 3.69 3.36 2.99 2.80 2.57 2.40 2.40 2.47 2.41 2.55 2.63 2.66 2.69 2.75
0.23 0.24 0.36 0.71 0.84 1.29 1.62 2.09 2.59 2.29 2.15 2.12 2.03 1.88 1.85 1.92 2.04 2.22 2.34 2.37 2.38 2.41 2.48 2.58 2.79 2.94 3.00 3.09 3.18 3.35 3.40 3.37 3.32 3.20 2.94 2.73 2.59 2.33 2.18 2.09 2.06 2.02 2.08 2.22 2.30 2.27 2.29 2.42 2.47
0.21 0.29 0.45 0.82 1.30 1.59 1.86 2.57 3.24 2.96 2.45 2.11 1.87 1.66 1.62 1.72 1.85 2.04 2.20 2.20 2.20 2.11 2.15 2.25 2.39 2.47 2.47 2.55 2.55 2.51 2.54 2.53 2.54 2.42 2.30 2.24 2.17 2.05 2.00 1.90 1.84 1.80 1.79 1.84 1.95 2.02 2.06 2.11 2.22
0.31 0.38 0.56 0.86 1.06 1.58 2.13 2.92 2.98 3.15 2.92 2.40 2.06 1.88 1.79 1.73 1.82 2.00 2.03 2.00 2.01 1.99 2.02 2.10 2.12 2.15 2.16 2.16 2.21 2.21 2.11 2.09 2.16 2.15 2.01 1.98 1.95 1.82 1.76 1.69 1.60 1.54 1.54 1.61 1.73 1.77 1.83 1.90 1.97
0.30 0.37 0.57 1.12 1.27 1.33 2.03 3.08 2.80 3.05 3.17 2.84 2.56 2.40 2.29 2.09 1.97 1.96 1.90 1.84 1.80 1.88 1.94 2.04 2.01 1.95 1.99 1.89 1.84 1.86 1.90 1.86 1.88 1.86 1.75 1.74 1.81 1.73 1.68 1.58 1.48 1.37 1.36 1.42 1.45 1.48 1.55 1.69 1.72